{"data":{"norad_id":62495,"epoch":"2026-09-21T00:34:30.339264Z","epoch_age_seconds":129391,"freshness":"FRESH","line1":"1 62495U 25003J   26264.02396226  .00010011  00000+0  37262-3 0  9991","line2":"2 62495  43.0001 265.9784 0001344 268.4743  91.5955 15.27597885 96425","mean_motion":15.27597885,"eccentricity":0.0001344,"inclination_deg":43.0001,"raan_deg":265.9784,"arg_perigee_deg":268.4743,"mean_anomaly_deg":91.5955,"bstar":0.00037262,"rev_number":9642,"period_min":94.265645045718,"perigee_km":482.07340622436,"apogee_km":483.91767865177,"semimajor_km":6861.1325424381,"source":"CELESTRAK","updated_at":"2026-09-22T09:00:49.617669Z"}}